PGT77PX EBCI-LTFM

Flight info

Callsign PGT77PX
Flight time N/A
Altitude 37000
Route SOPOK Y863 ROPUV L607 UBIDU L984 RUDUS T109 HAREM T104 WLD T702 BADIT DCT NEMAL DCT DIMLO DCT OSDUK/N0447F390 DCT PEROT DCT OSVIX DCT ETIDA T390 RILEX
Aircraft A320/M-SDE3FGHIRWY/LB1

Departure

Time 2026-05-08 14:56
Airport Brussels South Charleroi Airport (EBCI)

Arrival

Time N/A
Airport İstanbul Airport (LTFM)
Time Latitude Longitude Altitude Speed Heading
2026-05-08 14:29 50.46943 4.47343 626 ft 0 kts 335°
2026-05-08 14:45 50.46940 4.47346 613 ft 2 kts 335°
2026-05-08 14:45 50.46924 4.47357 632 ft 2 kts 335°
2026-05-08 14:45 50.46909 4.47370 626 ft 3 kts 310°
2026-05-08 14:45 50.46900 4.47393 624 ft 3 kts 274°
2026-05-08 14:46 50.46900 4.47413 626 ft 0 kts 248°
2026-05-08 14:48 50.46900 4.47412 624 ft 1 kts 249°
2026-05-08 14:48 50.46898 4.47405 623 ft 1 kts 249°
2026-05-08 14:49 50.46883 4.47343 622 ft 7 kts 249°
2026-05-08 14:49 50.46864 4.47280 626 ft 6 kts 244°
2026-05-08 14:49 50.46847 4.47226 622 ft 5 kts 244°
2026-05-08 14:49 50.46825 4.47151 623 ft 8 kts 246°
2026-05-08 14:50 50.46805 4.47079 619 ft 7 kts 246°
2026-05-08 14:50 50.46787 4.47016 616 ft 6 kts 246°
2026-05-08 14:50 50.46769 4.46952 623 ft 10 kts 246°
2026-05-08 14:50 50.46741 4.46854 626 ft 9 kts 246°
2026-05-08 14:51 50.46716 4.46768 617 ft 8 kts 245°
2026-05-08 14:51 50.46693 4.46692 625 ft 7 kts 241°
2026-05-08 14:51 50.46671 4.46628 619 ft 7 kts 241°
2026-05-08 14:51 50.46652 4.46569 625 ft 6 kts 246°
2026-05-08 14:52 50.46589 4.46545 613 ft 12 kts 162°
2026-05-08 14:52 50.46498 4.46420 615 ft 10 kts 248°
2026-05-08 14:52 50.46465 4.46306 621 ft 16 kts 245°
2026-05-08 14:53 50.46422 4.46159 625 ft 14 kts 245°
2026-05-08 14:53 50.46383 4.46028 618 ft 13 kts 245°
2026-05-08 14:53 50.46329 4.45850 618 ft 24 kts 244°
2026-05-08 14:53 50.46257 4.45600 618 ft 26 kts 249°
2026-05-08 14:54 50.46182 4.45335 622 ft 27 kts 246°
2026-05-08 14:54 50.46102 4.45055 622 ft 29 kts 245°
2026-05-08 14:54 50.46017 4.44765 618 ft 30 kts 245°
2026-05-08 14:54 50.45924 4.44462 622 ft 31 kts 240°
2026-05-08 14:55 50.45791 4.44183 620 ft 33 kts 232°
2026-05-08 14:55 50.45671 4.43979 622 ft 13 kts 186°
2026-05-08 14:55 50.45634 4.44067 619 ft 11 kts 78°
2026-05-08 14:55 50.45722 4.44364 627 ft 63 kts 64°
2026-05-08 14:56 50.45994 4.45317 625 ft 126 kts 65°
2026-05-08 14:56 50.46422 4.46780 771 ft 159 kts 65°
2026-05-08 14:56 50.46915 4.48304 1582 ft 157 kts 52°
2026-05-08 14:56 50.47688 4.49498 2312 ft 160 kts 49°
2026-05-08 14:57 50.48450 4.50893 2802 ft 179 kts 52°
2026-05-08 14:57 50.49302 4.52493 3181 ft 202 kts 51°
2026-05-08 14:57 50.50263 4.54297 3552 ft 227 kts 51°
2026-05-08 14:57 50.51335 4.56305 4076 ft 251 kts 51°
2026-05-08 14:58 50.52486 4.58452 4914 ft 261 kts 51°
2026-05-08 14:58 50.53646 4.60687 5805 ft 267 kts 52°
2026-05-08 14:58 50.54569 4.62542 6522 ft 273 kts 53°
2026-05-08 14:58 50.55726 4.64906 7370 ft 279 kts 53°
2026-05-08 14:59 50.56914 4.67346 8245 ft 284 kts 53°
2026-05-08 14:59 50.59341 4.72325 9990 ft 295 kts 53°
2026-05-08 14:59 50.60629 4.74947 10514 ft 312 kts 52°
2026-05-08 15:00 50.62004 4.77746 10810 ft 336 kts 53°
2026-05-08 15:00 50.63465 4.80779 11118 ft 356 kts 56°
2026-05-08 15:00 50.64636 4.84255 11763 ft 363 kts 69°
2026-05-08 15:00 50.65312 4.88089 12502 ft 366 kts 82°
2026-05-08 15:01 50.65453 4.92099 13258 ft 369 kts 94°
2026-05-08 15:01 50.65024 4.96078 14010 ft 371 kts 107°
2026-05-08 15:01 50.64255 4.99995 14684 ft 375 kts 108°
2026-05-08 15:01 50.63486 5.03871 15352 ft 378 kts 108°
2026-05-08 15:02 50.62701 5.07843 16017 ft 382 kts 108°
2026-05-08 15:02 50.61909 5.11853 16674 ft 386 kts 108°
2026-05-08 15:02 50.61109 5.15905 17329 ft 389 kts 109°
2026-05-08 15:02 50.60298 5.19997 17950 ft 393 kts 109°
2026-05-08 15:03 50.59478 5.24118 18538 ft 397 kts 109°
2026-05-08 15:03 50.58536 5.28209 19047 ft 399 kts 119°
2026-05-08 15:03 50.56837 5.31624 19549 ft 398 kts 139°
2026-05-08 15:03 50.54754 5.34522 20069 ft 401 kts 140°
2026-05-08 15:04 50.52667 5.37461 20591 ft 405 kts 139°
2026-05-08 15:04 50.50580 5.40462 21100 ft 408 kts 139°
2026-05-08 15:04 50.48522 5.43466 21596 ft 411 kts 138°
2026-05-08 15:04 50.46429 5.46548 22098 ft 414 kts 138°
2026-05-08 15:05 50.44320 5.49661 22587 ft 418 kts 138°
2026-05-08 15:05 50.42195 5.52796 23077 ft 421 kts 138°
2026-05-08 15:05 50.40052 5.55944 23554 ft 424 kts 138°
2026-05-08 15:05 50.37886 5.59108 23963 ft 427 kts 138°
2026-05-08 15:06 50.35706 5.62282 24357 ft 429 kts 139°
2026-05-08 15:06 50.33511 5.65468 24752 ft 431 kts 139°
2026-05-08 15:06 50.31302 5.68663 25153 ft 434 kts 139°
2026-05-08 15:06 50.29112 5.71836 25545 ft 436 kts 137°
2026-05-08 15:07 50.27077 5.75370 25922 ft 440 kts 128°
2026-05-08 15:07 50.25427 5.79410 26299 ft 444 kts 118°
2026-05-08 15:07 50.24222 5.83869 26668 ft 448 kts 109°
2026-05-08 15:07 50.23405 5.88583 27040 ft 451 kts 105°
2026-05-08 15:08 50.22616 5.93318 27391 ft 453 kts 106°
2026-05-08 15:08 50.22081 5.96477 27619 ft 454 kts 106°
2026-05-08 15:08 50.20986 6.02874 28068 ft 457 kts 107°
2026-05-08 15:08 50.20158 6.07682 28404 ft 459 kts 107°
2026-05-08 15:09 50.19340 6.12436 28727 ft 461 kts 107°
2026-05-08 15:09 50.18674 6.17352 29039 ft 465 kts 99°
2026-05-08 15:09 50.18474 6.22417 29352 ft 469 kts 90°
2026-05-08 15:09 50.18724 6.27486 29767 ft 469 kts 85°
2026-05-08 15:10 50.19056 6.32536 30222 ft 468 kts 85°
2026-05-08 15:10 50.19374 6.37593 30591 ft 467 kts 85°
2026-05-08 15:10 50.19683 6.42630 30808 ft 466 kts 86°